{"data":{"norad_id":58625,"epoch":"2026-05-25T00:10:23.026944Z","epoch_age_seconds":64591,"freshness":"FRESH","line1":"1 58625U 23203H   26145.00721096  .00005876  00000+0  22312-3 0  9997","line2":"2 58625  43.0008 356.0510 0000882 266.4572  93.6179 15.27543452135230","mean_motion":15.27543452,"eccentricity":8.82e-5,"inclination_deg":43.0008,"raan_deg":356.051,"arg_perigee_deg":266.4572,"mean_anomaly_deg":93.6179,"bstar":0.00022312,"rev_number":13523,"period_min":94.269004139596,"perigee_km":482.55336981545,"apogee_km":483.76370234801,"semimajor_km":6861.2955360817,"source":"CELESTRAK","updated_at":"2026-05-25T13:38:18.706335Z"}}